Tracking 20036 objects as of 22-Nov-2019
Live streaming from Space Station
objects crossing your sky now

CANX-6

Track CANX-6 now!
10-day predictions
CANX-6 is classified as:


NORAD ID: 32784
Int'l Code: 2008-021B
Perigee: 603.9 km
Apogee: 625.7 km
Inclination: 97.6 °
Period: 96.8 minutes
Semi major axis: 6985 km
RCS: 0.1943 m2 (medium)
Launch date: April 28, 2008
Source: Canada (CA)
Launch site: SRIHARIKOTA (SRI)

CanX 6 is a 14-pound [6-kg] Canadian spacecraft designed to track ships using maritime navigation signals transmitted from sea vessels.
aabbcc
Your satellite tracking list
Your tracking list is empty




NASA's NSSDC Master Catalog

Two Line Element Set (TLE):
1 32784U 08021B   19326.19892047  .00000189  00000-0  26934-4 0  9992
2 32784  97.5824 314.3900 0015595 117.1039 243.1770 14.86885716626561
Source of the keplerian elements: AFSPC